Regional Weather Roundup
Issued by NWS Upton, NY

Current Version | Previous Version | Text Only | Print | Product List | Glossary On
Versions: 1 2 3 4 5 6 7 8 9 10 11 12 13 14 15 16 17 18 19 20 21 22 23 24 25 26 27
000
ASUS41 KOKX 310204
RWROKX

REGIONAL WEATHER ROUNDUP
NATIONAL WEATHER SERVICE NEW YORK NY
1000 PM EDT TUE AUG 30 2016

NOTE: "FAIR" INDICATES FEW OR NO CLOUDS BELOW 12,000 FEET WITH NO
SIGNIFICANT WEATHER AND/OR OBSTRUCTIONS TO VISIBILITY.

NYZ071-072-176-178-NJZ106-104-310300-
NEW YORK CITY METRO AREA

CITY           SKY/WX    TMP DP  RH WIND       PRES   REMARKS
Central Park   PTCLDY    75  66  73 VRB3      30.08S
LaGuardia APRT MOCLDY    78  68  71 S7        30.05S
Kennedy INTL   CLOUDY    76  72  87 S9        30.06S
Newark/Liberty MOCLDY    76  67  73 S5        30.05S
Bronx Bot Gard   N/A     73  64  73 SW3       30.06S
Wall St Helipt MOCLDY    75  70  83 S5        30.07R
Teterboro      MOCLDY    76  66  71 S8        30.04S
$$

NYZ177-179-078>081-310300-
LONG ISLAND NEW YORK

CITY           SKY/WX    TMP DP  RH WIND       PRES   REMARKS
Farmingdale    PTCLDY    75  66  73 S6        30.06S
MacArthur/ISP  MOCLDY    74  65  73 S6        30.06S
Shirley        CLEAR     72  65  78 S3        30.07S
Riverhead      NOT AVBL
Westhampton    CLEAR     65  61  87 CALM      30.09R
Southampton      N/A     73  68  83 SW6       30.03S
Bridgehampton  NOT AVBL
East Hampton   FAIR      65  62  89 CALM      30.06S
Montauk          N/A     72  66  81 SW3       30.08R
$$

NYZ052-065-067-310300-
HUDSON VALLEY

CITY           SKY/WX    TMP DP  RH WIND       PRES   REMARKS
White Plains   PTCLDY    72  65  78 CALM      30.07R
Newburgh       CLEAR     72  63  73 CALM      30.07S
Montgomery     MOCLDY    66  62  87 CALM      30.05S
Poughkeepsie   PTCLDY    67  61  81 CALM      30.04S
Albany         PTCLDY    68  59  73 CALM      30.04S
$$

NJZ001-105-106-008-010-013-015-019>022-104-310300-
NEW JERSEY

CITY           SKY/WX    TMP DP  RH WIND       PRES   REMARKS
Newark/Liberty MOCLDY    76  67  73 S5        30.05S
Teterboro      MOCLDY    76  66  71 S8        30.04S
Caldwell       CLOUDY    76  66  71 CALM      30.06R
Morristown     CLEAR     70  66  88 CALM      30.06R
Somerville     CLEAR     72  66  81 CALM      30.04S
Linden         FAIR      75  67  74 CALM      30.07S
Sussex         CLOUDY    66  63  90 CALM      30.06S
Abdover          N/A     65  63  93 CALM      30.08R
Trenton        PTCLDY    75  68  78 S7        30.05S
Millville      CLEAR     71  71 100 CALM      30.06R
Atlantic City  CLEAR     74  71  91 SE6       30.05S
Wrightstown    CLEAR     72  70  93 E2        30.03S
Toms River     CLOUDY    69  67  93 CALM      30.06S
Belmar         CLOUDY    73  70  90 SE3       30.07S
$$

PAZ047>061-062-071-310300-
EASTERN PENNSYLVANIA

CITY           SKY/WX    TMP DP  RH WIND       PRES   REMARKS
Philadelphia   PTCLDY    78  71  79 S5        30.05R
Allentown      PTCLDY    72  60  66 CALM      30.06R
Scranton       PTCLDY    71  60  68 SE5       30.08R
$$

CTZ002-004>006-009-010-012-RIZ004-006-007-MAZ004-011-015-310300-
SOUTHERN NEW ENGLAND
 IN CT

CITY           SKY/WX    TMP DP  RH WIND       PRES   REMARKS
Bradley INTL   PTCLDY    70  57  63 SW3       30.04S
Hartford       CLEAR     73  63  70 S3        30.04S
Danbury        CLOUDY    67  62  84 CALM      30.08R
Wtrbury/Oxford   N/A     68  59  73 S6        30.08S
Bridgeport     PTCLDY    77  65  66 SW12      30.06R
Meriden        PTCLDY    70  62  76 CALM      30.06R
New Haven      PTCLDY    75  62  64 S6        30.07R
Chester        FAIR      72  63  73 SW7       30.07S
Groton         CLEAR     71  66  84 SW6       30.06R
Wilimantic     CLEAR     68  63  84 CALM      30.07S

 IN RI

CITY           SKY/WX    TMP DP  RH WIND       PRES   REMARKS
Providence     CLEAR     69  64  84 S7        30.06F
Block Island   CLEAR     72  66  81 SW8       30.08R
Westerly       PTCLDY    69  63  81 SE3       30.07S
 IN MA

CITY           SKY/WX    TMP DP  RH WIND       PRES   REMARKS
Boston         CLEAR     72  61  68 S9        30.03F
Worcester      CLEAR     67  56  67 SW6       30.07F
Westfield      CLEAR     67  59  75 CALM      30.04S
Provincetown   CLEAR     68  64  87 S8        30.06F
Nantucket      CLEAR     66  62  87 S7        30.08S
$$

ANZ330-335-338-340-345-350-353-355-310300-
COASTAL MARINE OBSERVATIONS


STATION/POSITION TIME  SKY/WX   TEMP    WIND        PRES    VSBY  WAVE
                                AIR SEA DIR/SP/G                  HT/PER
                 (UTC)          (F)     (DEG/KT/KT) (MB)    (MI)  (FT/S)
NY HARB ENTRANCE 0050            76 77  170/ 10/ 12 1017.4          4/12
20S FIRE ISLAND  0050            76 76  160/  8/ 12 1017.6          5/12
GREAT SOUTH BAY  0100            76 80  190/  8/ 12   N/A
23 SSW MONTAUK P 0050            75 78  210/ 10/ 12 1018.4          4/12
15 E BARNEGAT LI 0100               78                N/A           4/13
HUDSON CANYON    0050            76 79              1018.1          4/11
KINGS POINT      0100            76 77              1017.5
EXECUTION ROCKS  0100            76     190/  8/ 14   N/A
CENTRAL LI SOUND 0100            75 77  210/ 12/ 16   N/A           2/ 3
EASTERN LI SOUND 0100            72 71  200/  8/ 10   N/A
ROBBINS REEF     0100            75                 1017.0
$$


>>>>>>>>>>>>>>>>>>>>>>>>>>>> KEY <<<<<<<<<<<<<<<<<<<<<<<<<<<
>                                                          <
>     SKY/WX - Sky Condition/Present Weather               <
>     TMP    - Temperature in Fahrenheit                   <
>     DP     - Dew Point in Fahrenheit                     <
>     RH     - Relative Humidity in Percent                <
>     WIND   - Direction (from) and Speed in MPH           <
>     PRES   - Mean Sea Level Pressure (inches of Hg)      <
>     WCI    - Wind Chill Index                            <
>     VSB    - VISIBILITY IN MILES                         <
>     HX     - HEAT INDEX                                  <
>     TC     - TEMPERATURE IN CELSIUS                      <
>     VRB    - VARIABLE WIND DIRECTION                     <
>                                                          <
>>>>>>>>>>>>>>>>>>>>>>>>>>>> KEY <<<<<<<<<<<<<<<<<<<<<<<<<<<




USA.gov is the U.S. government's official web portal to all federal, state and local government web resources and services.